User: anonymous   Login
Location: Caltech
(34.1382°N, 118.1253°W)
Time: 10:03:48
(UTC-07:00)
Language:

Iridium 65 - Orbit

View from above orbital plane
View from above orbital plane
View from above satellite
View from above satellite

Ground track
Ground track

The orbit data is extracted from the following two-line orbital elements,

1 25288U 98021D   15117.20741094  .00000438  00000-0  14941-3 0  9994
2 25288 086.4005 190.7256 0002295 091.0340 320.6795 14.34218079892937
Epoch (UTC): 27 April 2015 04:58:40
Eccentricity: 0.0002295
inclination: 86.4005°
perigee height: 776 km
apogee height: 779 km
right ascension of ascending node: 190.7256°
argument of perigee: 91.0340°
revolutions per day: 14.34218079
mean anomaly at epoch: 320.6795°
orbit number at epoch: 89293

The dashed part of the orbit path shows where the satellite is in the earth's shadow,  

DLR